De Queen, AR

1:23 AM CDT on April 24, 2017 (GMT -0500)
Helms Sevier County

Weather History for KDEQ - April, 2012

Change the Weather History Date:

Monday, April 2, 2012

  Actual Average Record
Temperature  
Mean Temperature 70 °F 57 °F  
Max Temperature 82 °F 70 °F 89 °F (1946)
Min Temperature 57 °F 44 °F 27 °F (1962)
Degree Days  
Heating Degree Days 0 8  
Month to date heating degree days 0 17  
Since 1 July heating degree days 2324 2885  
Cooling Degree Days 5 1  
Month to date cooling degree days 11 2  
Year to date cooling degree days 59 13  
Growing Degree Days 19 (Base 50)    
Moisture  
Dew Point 62 °F    
Average Humidity 81    
Maximum Humidity 100    
Minimum Humidity 62    
Precipitation  
Precipitation 0.11 in 0.13 in 1.98 in (1944)
Month to date precipitation 0.11 0.27  
Year to date precipitation 10.15 11.91  
Snow  
Snow 0.00 in - - ()
Month to date snowfall 0.0  
Since 1 July snowfall 2.3  
Snow Depth 0.00 in    
Sea Level Pressure  
Sea Level Pressure 29.73 in    
Wind  
Wind Speed 4 mph (ENE)    
Max Wind Speed 29 mph    
Max Gust Speed 41 mph    
Visibility 6 miles    
Events Fog , Rain , Thunderstorm    
T = Trace of Precipitation, MM = Missing Value Source: NWS Daily Summary

Daily Weather History Graph

Daily Weather History Graph

Search for Another Location

Airport or City:

Trip Planner

Search our weather history database for the weather conditions in past years. The results will help you decide how hot, cold, wet, or windy it might be!

Date:

Astronomy

Apr. 02, 2012 Rise Set
Actual Time 7:02 AM CDT 7:39 PM CDT
Civil Twilight 6:37 AM CDT 8:04 PM CDT
Nautical Twilight 6:08 AM CDT 8:34 PM CDT
Astronomical Twilight 5:37 AM CDT 9:04 PM CDT
Moon 3:27 PM CDT (4/2) 4:04 AM CDT (4/2)
Length of Visible Light 13h 27m
Length of Day
12h 36m
Waxing Gibbous, 78% of the Moon is Illuminated
Apr 2
Waxing Gibbous
Apr 6
Full
Apr 13
Last Quarter
Apr 21
New
Apr 29
First Quarter

Hourly Weather History & Observations

Time (CDT) Temp. Heat Index Dew Point Humidity Pressure Visibility Wind Dir Wind Speed Gust Speed Precip Events Conditions
12:53 AM 66.9 °F - 62.1 °F 84% 29.69 in 9.0 mi Calm Calm - N/A   Clear
1:53 AM 62.1 °F - 61.0 °F 96% 29.69 in 6.0 mi Calm Calm - N/A   Clear
2:37 AM 60.8 °F - 59.0 °F 94% 29.70 in 1.8 mi Calm Calm - N/A   Clear
2:53 AM 60.1 °F - 59.0 °F 96% 29.68 in 1.5 mi Calm Calm - N/A   Clear
3:03 AM 60.8 °F - 60.8 °F 100% 29.70 in 2.5 mi Calm Calm - N/A   Clear
3:11 AM 60.8 °F - 60.8 °F 100% 29.70 in 4.0 mi Calm Calm - N/A   Clear
3:22 AM 60.8 °F - 59.0 °F 94% 29.70 in 1.8 mi Calm Calm - N/A   Partly Cloudy
3:53 AM 59.0 °F - 59.0 °F 100% 29.68 in 0.5 mi Calm Calm - N/A Fog Fog
4:15 AM 59.0 °F - 59.0 °F 100% 29.69 in 0.2 mi Calm Calm - N/A Fog Fog
4:50 AM 57.2 °F - 57.2 °F 100% 29.70 in 0.5 mi Calm Calm - N/A Fog Fog
4:53 AM 57.0 °F - 57.0 °F 100% 29.69 in 0.2 mi NE 3.5 mph - N/A Fog Fog
5:31 AM 57.2 °F - 57.2 °F 100% 29.71 in 0.5 mi Calm Calm - N/A Fog Fog
5:39 AM 59.0 °F - 59.0 °F 100% 29.72 in 2.0 mi NE 3.5 mph - N/A   Overcast
5:46 AM 60.8 °F - 59.0 °F 94% 29.72 in 5.0 mi East 3.5 mph - N/A   Overcast
5:53 AM 61.0 °F - 61.0 °F 100% 29.71 in 6.0 mi Calm Calm - N/A   Overcast
6:53 AM 62.1 °F - 62.1 °F 100% 29.73 in 4.0 mi Calm Calm - N/A   Overcast
7:53 AM 64.9 °F - 64.0 °F 97% 29.75 in 4.0 mi NNE 3.5 mph - N/A   Overcast
8:16 AM 66.2 °F - 64.4 °F 94% 29.76 in 5.0 mi NE 4.6 mph - N/A   Overcast
8:31 AM 66.2 °F - 64.4 °F 94% 29.76 in 7.0 mi NE 4.6 mph - N/A   Overcast
8:53 AM 69.1 °F - 66.0 °F 90% 29.75 in 8.0 mi NE 4.6 mph - N/A   Overcast
9:15 AM 69.8 °F - 64.4 °F 83% 29.76 in 10.0 mi East 4.6 mph - N/A   Overcast
9:53 AM 70.0 °F - 66.0 °F 87% 29.74 in 10.0 mi NE 5.8 mph - N/A   Overcast
10:53 AM 73.9 °F - 66.0 °F 76% 29.73 in 10.0 mi NNE 8.1 mph - N/A   Overcast
11:40 AM 75.2 °F - 66.2 °F 73% 29.74 in 10.0 mi ENE 6.9 mph - N/A   Partly Cloudy
11:53 AM 75.9 °F - 64.9 °F 69% 29.73 in 10.0 mi East 5.8 mph - N/A   Partly Cloudy
12:53 PM 78.1 °F - 66.0 °F 66% 29.71 in 10.0 mi ESE 11.5 mph - N/A   Mostly Cloudy
1:53 PM 80.1 °F 82.3 °F 66.9 °F 64% 29.69 in 10.0 mi East 9.2 mph - N/A   Mostly Cloudy
2:53 PM 81.0 °F 83.0 °F 66.0 °F 60% 29.66 in 10.0 mi SE 10.4 mph - N/A   Mostly Cloudy
3:53 PM 77.0 °F - 66.0 °F 69% 29.68 in 10.0 mi ESE 8.1 mph - N/A Thunderstorm Scattered Clouds
4:53 PM 63.0 °F - 61.0 °F 93% 29.74 in 4.0 mi SSW 8.1 mph - 0.05 in Rain , Thunderstorm Thunderstorms and Rain
5:11 PM 62.6 °F - 62.6 °F 100% 29.76 in 3.0 mi Calm Calm - 0.05 in Rain Rain
5:19 PM 62.6 °F - 62.6 °F 100% 29.76 in 4.0 mi West 3.5 mph - 0.06 in Rain , Thunderstorm Rain
5:34 PM 62.6 °F - 62.6 °F 100% 29.76 in 6.0 mi WSW 3.5 mph - 0.06 in Rain Light Rain
5:53 PM 63.0 °F - 62.1 °F 97% 29.76 in 6.0 mi North 4.6 mph - 0.06 in Rain Light Rain
6:53 PM 64.0 °F - 62.1 °F 93% 29.75 in 10.0 mi Calm Calm - 0.00 in   Mostly Cloudy
7:53 PM 63.0 °F - 62.1 °F 97% 29.75 in 10.0 mi East 3.5 mph - N/A   Mostly Cloudy
8:53 PM 63.0 °F - 61.0 °F 93% 29.75 in 10.0 mi ENE 5.8 mph - 0.00 in Rain Light Rain
9:46 PM 62.6 °F - 62.6 °F 100% 29.78 in 10.0 mi Calm Calm - 0.00 in   Mostly Cloudy
9:53 PM 63.0 °F - 62.1 °F 97% 29.77 in 10.0 mi Calm Calm - 0.00 in   Mostly Cloudy
10:37 PM 62.6 °F - 60.8 °F 94% 29.78 in 10.0 mi NE 4.6 mph - N/A   Mostly Cloudy
10:46 PM 62.6 °F - 60.8 °F 94% 29.78 in 10.0 mi ENE 3.5 mph - N/A   Mostly Cloudy
10:53 PM 63.0 °F - 62.1 °F 97% 29.77 in 10.0 mi ENE 3.5 mph - N/A   Mostly Cloudy
11:53 PM 63.0 °F - 62.1 °F 97% 29.75 in 10.0 mi ENE 3.5 mph - N/A   Overcast